Flag for French Polynesia Weather past 2 weeks in Papeete, Tahiti, French Polynesia

Now
75 °F

Passing clouds.


Feels Like: 77 °F
Forecast: 72 / 83 °F
Wind: 8 mph from East

Location: Tahiti-Faaa

Current Time: Jul 23, 2014 at 11:24:32 PM

Latest Report: Jul 23, 2014 at 11:00 PM


Visibility: N/A

Pressure: 29.95 "Hg

Humidity: 69%

Dew point: 64 °F

Location of PapeeteLocation

Historic Weather in Papeete — Graph

°F

Papeete temperature yesterday

Maximum temperature yesterday: 82 °F (at 1:30 PM)
Minimum temperature yesterday: 70 °F (at 4:00 AM)
Average temperature yesterday: 75 °F

Past Weeks' High & Low Weather Summary

 TemperatureHumidityPressure
High86 °F (Jul 12, 12:30 PM)94% (Jul 15, 6:07 AM)30.07 "Hg (Jul 15, 6:07 AM)
Low70 °F (Jul 22, 4:00 AM)55% (Jul 19, 12:30 PM)29.74 "Hg (Jul 10, 3:30 PM)
Average78 °F75%29.94 "Hg
* Reported Jul 8 10:00 PM — Jul 23 10:30 PM, Papeete, Weather by CustomWeather, © 2014

Note: Actual official high and low records may vary slightly from our data, if they occured in-between our weather recording intervals... More about our weather records

Advertising

Papeete weather history for previous 24 hours

 ConditionsComfort  
Time TempWeatherWind HumidityBarometerVisibility
10:30 PM
Jul 23
75 °FPassing clouds.6 mph65%29.95 "HgN/A
10:00 PM75 °FPassing clouds.6 mph69%29.95 "HgN/A
9:30 PM75 °FPassing clouds.7 mph69%29.95 "HgN/A
9:00 PM75 °FPassing clouds.6 mph69%29.95 "HgN/A
8:30 PM75 °FPassing clouds.6 mph74%29.95 "HgN/A
8:00 PM75 °FPassing clouds.6 mph74%29.95 "HgN/A
7:30 PM77 °FPassing clouds.7 mph69%29.95 "HgN/A
7:00 PM77 °FPassing clouds.7 mph74%29.92 "HgN/A
6:30 PM79 °FPassing clouds.10 mph70%29.92 "HgN/A
6:00 PM79 °FPassing clouds.10 mph70%29.92 "HgN/A
5:30 PM79 °FPassing clouds.10 mph70%29.92 "HgN/A
5:00 PM81 °FPassing clouds.10 mph66%29.92 "HgN/A
4:30 PM82 °FPassing clouds.10 mph66%29.89 "HgN/A
4:00 PM82 °FPassing clouds.10 mph62%29.89 "HgN/A
3:00 PM82 °FPassing clouds.10 mph62%29.89 "HgN/A
2:30 PM82 °FPassing clouds.9 mph62%29.92 "HgN/A
2:00 PM84 °FPassing clouds.9 mph58%29.92 "HgN/A
1:30 PM84 °FPassing clouds.10 mph58%29.92 "HgN/A
1:00 PM84 °FPassing clouds.9 mph58%29.95 "HgN/A
12:30 PM84 °FPassing clouds.8 mph58%29.95 "HgN/A
12:00 PM84 °FPassing clouds.9 mph58%29.95 "HgN/A
11:30 AM84 °FPassing clouds.9 mph55%29.98 "HgN/A
11:00 AM84 °FPassing clouds.9 mph55%29.98 "HgN/A
10:30 AM84 °FPassing clouds.9 mph55%29.98 "HgN/A
10:00 AM82 °FPassing clouds.9 mph58%30.01 "HgN/A
9:00 AM81 °FPassing clouds.9 mph62%30.01 "HgN/A
8:30 AM81 °FPassing clouds.7 mph58%30.01 "HgN/A
8:00 AM79 °FPassing clouds.8 mph61%29.98 "HgN/A
7:30 AM77 °FPassing clouds.6 mph65%29.98 "HgN/A
7:00 AM73 °FPassing clouds.5 mph74%29.98 "HgN/A
6:30 AM73 °FPassing clouds.6 mph74%29.95 "HgN/A
6:00 AM72 °FPassing clouds.5 mph78%29.95 "HgN/A
5:30 AM72 °FMild.5 mph78%29.92 "HgN/A
5:00 AM70 °FMild.2 mph83%29.92 "HgN/A
4:30 AM72 °FMild.No wind78%29.92 "HgN/A
4:00 AM73 °FMild.3 mph74%29.92 "HgN/A
3:30 AM73 °FMild.5 mph74%29.92 "HgN/A
3:00 AM73 °FPassing clouds.5 mph74%29.92 "HgN/A
1:00 AM70 °FPassing clouds.1 mph73%29.92 "HgN/A
12:30 AM72 °FPassing clouds.2 mph65%29.95 "HgN/A
12:00 AM72 °FPassing clouds.3 mph69%29.95 "HgN/A
11:30 PM
Jul 22
72 °FPassing clouds.3 mph69%29.95 "HgN/A
11:00 PM72 °FPassing clouds.3 mph69%29.95 "HgN/A
Weather by CustomWeather, © 2014

See weather overviewHow to use our weather pages